Location: Kings Park
(40.8862°N, 73.2573°W)
Time: 07:26:54
(UTC+00:00)

CZ-2D R/B - Pass Details

Date: 29 October 2020
Orbit: 522 x 537 km, 97.4° (Epoch: 02 December)

Event Time Altitude Azimuth Distance (km) Brightness Sun altitude
Rises 23:39:42 0° 182° (S) 2,647 6.8 -20.9°
Reaches altitude 10° 23:41:53 10° 189° (S) 1,761 6.0 -21.3°
Maximum altitude 23:45:30 42° 261° (W) 757 4.5 -22.0°
Drops below altitude 10° 23:49:08 10° 334° (NNW) 1,769 6.2 -22.6°
Sets 23:51:20 0° 341° (NNW) 2,661 7.1 -23.1°
